[[[{"header":{"parameterUnit":"kt","parameterCategory":2,"dx":1,"dy":1,"la1":30.253999710083008,"la2":30.299108505249023,"lo1":-89.0895004272461,"lo2":-89.04439544677734,"nx":28,"ny":28,"refTime":"2022-09-20T15:00:00:Z","depth":0,"parameterNumber":1,"parameterNumberName":"U-component_of_WINDS"},"data":[-0.4563,-0.4463,-0.4504,-0.4407,-0.4426,-0.4367,-0.4358,-0.435,-0.4353,-0.4283,-0.425,-0.4276,-0.4293,-0.426,-0.4223,-0.4236,-0.4219,-0.4155,-0.4181,-0.4432,-0.4469,-0.4505,-0.4534,-0.415,-0.4149,-0.3918,-0.3916,-0.3914,-0.4747,-0.4767,-0.4726,-0.4716,-0.4682,-0.4768,-0.4764,-0.473,-0.4672,-0.4674,-0.4643,-0.4583,-0.4539,-0.4577,-0.4542,-0.4493,-0.4531,-0.4481,-0.4487,-0.4489,-0.4757,-0.4788,-0.4451,-0.4451,-0.4452,-0.4452,-0.4452,-0.4452,-0.5093,-0.5031,-0.5049,-0.5007,-0.5011,-0.5002,-0.4948,-0.4986,-0.4945,-0.4915,-0.4967,-0.4901,-0.4909,-0.4883,-0.4883,-0.4832,-0.4894,-0.485,-0.484,-0.4829,-0.4813,-0.5149,-0.4826,-0.4827,-0.4828,-0.4829,-0.483,0,-0.5361,-0.54,-0.5365,-0.5341,-0.5311,-0.5295,-0.5287,-0.5254,-0.5346,-0.5307,-0.5255,-0.5231,-0.5181,-0.5135,-0.5108,-0.5118,-0.5202,-0.5212,-0.5183,-0.516,-0.5143,-0.5155,-0.5595,-0.5222,-0.5225,-0.5228,-0.523,-0.5231,-0.5717,-0.5638,-0.5675,-0.5645,-0.5651,-0.5598,-0.5575,-0.5663,-0.5633,-0.5634,-0.5572,-0.5526,-0.5495,-0.54,-0.544,-0.5401,-0.5442,-0.5297,-0.5437,-0.5417,-0.5444,-0.545,-0.5444,-0.5268,-0.5264,-0.526,-0.5257,0,-0.5914,-0.5982,-0.5872,-0.5916,-0.5925,-0.5836,-0.5873,-0.5811,-0.5853,-0.5774,-0.576,-0.5824,-0.5769,-0.5833,-0.578,-0.5816,-0.5669,-0.5707,-0.5669,-0.5681,-0.556,-0.5571,-0.5148,-0.5099,-0.5494,-0.549,-0.5487,0,-0.6246,-0.6137,-0.6245,-0.6177,-0.6059,-0.6152,-0.6032,-0.6056,-0.6066,-0.6005,-0.6112,-0.6051,-0.6143,-0.609,-0.6142,-0.6032,-0.6021,-0.6043,-0.6058,-0.6035,-0.6033,-0.6021,-0.6041,-0.6092,-0.6094,-0.6096,-0.6097,0,-0.6551,-0.6479,-0.6369,-0.6364,-0.6399,-0.6344,-0.6355,-0.6367,-0.6342,-0.6319,-0.6304,-0.6268,-0.6248,-0.6219,-0.6286,-0.6379,-0.6152,-0.6294,-0.6175,-0.6173,-0.6123,-0.6125,-0.5733,-0.61,-0.6101,-0.6101,-0.6102,0,-0.683,-0.681,-0.6639,-0.6673,-0.665,-0.6575,-0.6551,-0.6502,-0.6505,-0.6535,-0.6517,-0.6596,-0.6504,-0.6641,-0.6516,-0.662,-0.6594,-0.6605,-0.6598,-0.6596,-0.6748,-0.6522,-0.6139,-0.6103,-0.6591,-0.6595,-0.6599,0,-0.7162,-0.7008,-0.7089,-0.6923,-0.6861,-0.6991,-0.6909,-0.6909,-0.6943,-0.6893,-0.6928,-0.6869,-0.6985,-0.6976,-0.6904,-0.6938,-0.6803,-0.6957,-0.6883,-0.6879,-0.6883,-0.6531,-0.646,-0.6216,-0.6652,-0.6646,-0.6642,0,-0.7429,-0.7476,-0.744,-0.744,-0.7458,-0.7405,-0.7309,-0.7274,-0.7238,-0.7224,-0.7147,-0.7063,-0.7149,-0.713,-0.719,-0.7113,-0.6897,-0.7214,-0.7215,-0.7157,-0.6682,-0.6616,-0.6575,-0.6954,-0.6948,-0.6942,-0.6684,0,-0.7843,-0.7774,-0.7681,-0.7672,-0.7642,-0.754,-0.7615,-0.7573,-0.7638,-0.7676,-0.7561,-0.7574,-0.7533,-0.7502,-0.7561,-0.7363,-0.7407,-0.7497,-0.7636,-0.7403,-0.732,-0.7286,-0.7755,-0.7759,-0.7763,-0.7766,0,0,-0.8145,-0.8049,-0.8141,-0.8054,-0.8035,-0.8172,-0.8057,-0.8052,-0.8039,-0.8022,-0.8101,-0.7984,-0.799,-0.7843,-0.7776,-0.7757,-0.7729,-0.7806,-0.7513,-0.7484,-0.7458,-0.7368,-0.7331,-0.7773,-0.7774,-0.7776,-0.7777,0,-0.8314,-0.8325,-0.8211,-0.8213,-0.8219,-0.8266,-0.8238,-0.8266,-0.8285,-0.8173,-0.8285,-0.8223,-0.8125,-0.812,-0.8103,-0.7826,-0.7913,-0.7807,-0.7636,-0.7548,-0.7515,-0.7485,-0.7389,-0.7354,-0.7786,-0.7785,-0.7785,0,-0.8593,-0.8617,-0.857,-0.8533,-0.8537,-0.8468,-0.8635,-0.8553,-0.8502,-0.8651,-0.8538,-0.8554,-0.855,-0.84,-0.8335,-0.8404,-0.8077,-0.819,-0.8168,-0.8163,-0.8082,-0.8041,-0.8005,-0.8481,-0.8483,-0.8485,0,0,-0.8727,-0.8664,-0.8717,-0.8575,-0.857,-0.8638,-0.8608,-0.867,-0.8667,-0.8665,-0.8689,-0.868,-0.8625,-0.8585,-0.8537,-0.836,-0.8367,-0.8273,-0.8241,-0.8214,-0.8193,-0.8104,-0.8064,-0.8493,-0.8493,-0.8493,0,0,-0.8791,-0.8849,-0.8916,-0.8762,-0.8757,-0.8797,-0.8707,-0.8788,-0.8753,-0.8773,-0.8868,-0.887,-0.873,-0.8741,-0.8842,-0.8588,-0.8724,-0.8701,-0.8586,-0.8546,-0.8514,-0.8515,-0.9012,0,0,0,0,0,-0.9003,-0.8843,-0.8903,-0.8889,-0.884,-0.8764,-0.8758,-0.8837,-0.8934,-0.8861,-0.8894,-0.8988,-0.8816,-0.8908,-0.8889,-0.8776,-0.8598,-0.8579,-0.8562,-0.8373,-0.833,-0.8293,0,0,0,0,0,0,-0.8999,-0.8981,-0.8908,-0.8939,-0.893,-0.8771,-0.8953,-0.897,-0.8944,-0.8964,-0.8979,-0.8989,-0.9051,-0.8922,-0.8904,-0.8795,-0.9018,-0.859,-0.8575,-0.856,-0.8358,-0.8323,-0.8293,0,0,0,0,0,-0.8995,-0.8981,-0.8884,-0.8942,-0.8934,-0.9,-0.8959,-0.8975,-0.8956,-0.9007,-0.902,-0.9018,-0.9046,-0.9037,-0.8912,-0.8801,-0.903,-0.9024,-0.858,-0.8568,-0.8557,-0.8341,0,0,0,0,0,0,-0.8992,-0.8993,-0.8884,-0.8884,-0.901,-0.9011,-0.9014,-0.8979,-0.9002,-0.9013,-0.9051,-0.9067,-0.904,-0.9034,-0.9026,-0.8799,-0.9041,-0.9034,-0.9029,-0.8571,-0.8561,-0.8552,0,0,0,0,0,0,-0.9002,-0.8992,-0.8884,-0.8965,-0.8975,-0.902,-0.9023,-0.8926,-0.9,-0.9045,-0.9059,-0.9058,-0.9051,-0.9031,-0.9026,-0.8873,-0.9049,-0.9042,-0.9037,-0.9034,-0.8563,-0.8555,0,0,0,0,0,0,-0.8999,-0.8991,-0.8965,-0.8973,-0.8982,-0.899,-0.8936,-0.8881,-0.9074,-0.9042,-0.9093,-0.9102,-0.9045,-0.9041,-0.9025,-0.8873,-0.8873,-0.9048,-0.9044,-0.9041,-0.9039,0,0,0,0,0,0,0,-0.8997,-0.9032,-0.8883,-0.898,-0.8988,-0.8885,-0.8885,-0.8885,-0.9076,-0.9083,-0.9091,-0.9098,-0.9087,-0.9079,-0.9072,-0.8874,0,0,-0.9049,-0.9046,0,0,0,0,0,0,0,0,-0.9037,-0.9033,-0.8883,-0.8883,-0.8883,-0.8885,-0.8885,-0.8885,-0.9077,-0.9083,-0.9089,-0.9095,-0.9085,-0.9079,-0.9073,0,0,0,0,0,0,0,0,0,0,0,0,0,0,0,-0.8883,-0.8883,0,-0.8885,-0.8885,-0.8885,-0.9078,-0.9083,-0.9088,-0.9093,-0.9083,-0.9078,-0.9073,0,0,0,0,0,0,0,0,0,0,0,0,0,0,0,0,0,0,0,0,0,0,0,0,0,0,0,0,0,0,0,0,0,0,0,0,0,0,0,0,0,0,0,0,0,0,0,0,0,0,0,0,0,0,0,0,0,0,0,0,0,0,0,0,0,0,0,0,0]}],[{"header":{"parameterUnit":"kt","parameterCategory":2,"dx":1,"dy":1,"la1":30.253999710083008,"la2":30.299108505249023,"lo1":-89.0895004272461,"lo2":-89.04439544677734,"nx":28,"ny":28,"refTime":"2022-09-20T15:00:00:Z","depth":0,"parameterNumber":2,"parameterNumberName":"V-component_of_WINDS"},"data":[-0.9703,-0.9537,-0.9512,-0.9311,-0.9253,-0.9111,-0.9052,-0.8972,-0.8901,-0.8727,-0.8623,-0.8576,-0.8493,-0.836,-0.8244,-0.8225,-0.8181,-0.8145,-0.813,-0.8315,-0.8339,-0.8362,-0.8403,-0.8134,-0.8134,-0.7946,-0.7944,-0.7943,-0.9856,-0.9798,-0.9682,-0.9552,-0.9453,-0.9474,-0.937,-0.9287,-0.9157,-0.9065,-0.8958,-0.8801,-0.8672,-0.8597,-0.8468,-0.8391,-0.8393,-0.8358,-0.8367,-0.8355,-0.855,-0.8594,-0.836,-0.836,-0.836,-0.836,-0.836,-0.836,-1.0128,-1.0027,-0.9934,-0.9806,-0.9732,-0.9644,-0.9543,-0.9489,-0.9372,-0.9233,-0.9219,-0.907,-0.8971,-0.8797,-0.873,-0.8614,-0.8645,-0.8598,-0.8588,-0.8578,-0.8576,-0.8867,-0.8588,-0.8588,-0.8589,-0.8589,-0.859,0,-1.0321,-1.0307,-1.019,-1.0068,-0.9972,-0.9872,-0.9775,-0.971,-0.9662,-0.9566,-0.9426,-0.934,-0.9168,-0.9033,-0.8901,-0.8839,-0.8849,-0.8842,-0.8812,-0.8823,-0.8853,-0.8844,-0.9172,-0.8851,-0.8853,-0.8855,-0.8856,-0.8857,-1.0601,-1.0482,-1.0366,-1.0289,-1.0229,-1.0101,-1.0019,-0.9985,-0.9899,-0.9772,-0.9683,-0.9544,-0.9432,-0.9207,-0.9139,-0.9009,-0.9012,-0.8896,-0.8992,-0.901,-0.9021,-0.9031,-0.9023,-0.8879,-0.8876,-0.8874,-0.8872,0,-1.0764,-1.0717,-1.0522,-1.0416,-1.0386,-1.0263,-1.0172,-1.0066,-1.002,-0.9869,-0.9831,-0.9759,-0.9618,-0.9568,-0.9393,-0.9372,-0.9175,-0.9177,-0.9213,-0.9214,-0.911,-0.9124,-0.8764,-0.8719,-0.8989,-0.8986,-0.8984,0,-1.0987,-1.0829,-1.077,-1.0659,-1.0485,-1.0453,-1.0281,-1.0225,-1.0136,-1.0016,-1.0017,-0.9904,-0.9855,-0.9734,-0.97,-0.9528,-0.9492,-0.9468,-0.9462,-0.9472,-0.9476,-0.9428,-0.9444,-0.9442,-0.9444,-0.9445,-0.9447,0,-1.1252,-1.1029,-1.0848,-1.079,-1.0657,-1.0572,-1.0512,-1.041,-1.0327,-1.021,-1.0158,-1.0021,-0.9948,-0.9844,-0.9804,-0.9873,-0.9588,-0.9674,-0.9564,-0.9566,-0.9507,-0.9512,-0.9203,-0.9449,-0.945,-0.945,-0.9451,0,-1.1426,-1.1311,-1.1051,-1.0944,-1.0886,-1.0762,-1.0631,-1.0513,-1.0404,-1.0376,-1.0282,-1.0277,-1.0115,-1.0206,-0.9986,-1.0089,-1.0017,-0.9976,-0.9967,-0.9955,-1.006,-0.9902,-0.9606,-0.9577,-0.994,-0.9943,-0.9947,0,-1.1748,-1.147,-1.1442,-1.1192,-1.1058,-1.1074,-1.0935,-1.0838,-1.0788,-1.0667,-1.061,-1.0468,-1.0524,-1.0473,-1.0369,-1.0306,-1.0171,-1.0321,-1.0151,-1.0145,-1.019,-0.9915,-0.9888,-0.9676,-0.9998,-0.9992,-0.9989,0,-1.1991,-1.1829,-1.1785,-1.172,-1.1584,-1.1467,-1.1306,-1.116,-1.1082,-1.0965,-1.0834,-1.0626,-1.0664,-1.0575,-1.0553,-1.0448,-1.0261,-1.0501,-1.0497,-1.0467,-1.0015,-0.9992,-0.9957,-1.027,-1.0264,-1.0259,-1.0029,0,-1.2283,-1.2133,-1.2011,-1.1857,-1.1758,-1.1594,-1.1541,-1.1444,-1.1437,-1.1388,-1.1186,-1.1083,-1.0928,-1.0868,-1.0855,-1.0628,-1.0659,-1.0697,-1.0785,-1.0602,-1.0526,-1.0493,-1.0905,-1.0907,-1.0909,-1.091,0,0,-1.2607,-1.239,-1.2359,-1.2202,-1.2118,-1.2133,-1.1964,-1.1881,-1.1712,-1.1654,-1.1702,-1.1396,-1.1308,-1.1069,-1.1007,-1.0939,-1.0896,-1.0959,-1.0687,-1.0663,-1.064,-1.0559,-1.0526,-1.0913,-1.0914,-1.0915,-1.0915,0,-1.2703,-1.2617,-1.2449,-1.2364,-1.2236,-1.2191,-1.2151,-1.2025,-1.1984,-1.1782,-1.1795,-1.1665,-1.1414,-1.1325,-1.1247,-1.0987,-1.1004,-1.0941,-1.0826,-1.0708,-1.0681,-1.0657,-1.0572,-1.0541,-1.092,-1.0919,-1.0919,0,-1.294,-1.2849,-1.276,-1.2563,-1.2478,-1.2333,-1.2414,-1.2254,-1.2147,-1.2164,-1.1963,-1.1897,-1.1767,-1.1543,-1.1439,-1.148,-1.1106,-1.1208,-1.1195,-1.1183,-1.1065,-1.1033,-1.1004,-1.1387,-1.1389,-1.1391,0,0,-1.303,-1.2888,-1.2777,-1.2579,-1.2525,-1.2454,-1.2368,-1.2351,-1.2236,-1.219,-1.2105,-1.1991,-1.1847,-1.1752,-1.1612,-1.1371,-1.1345,-1.1268,-1.1246,-1.1228,-1.1207,-1.1085,-1.1053,-1.1398,-1.1398,-1.1398,0,0,-1.3072,-1.2938,-1.295,-1.2714,-1.2607,-1.2481,-1.2363,-1.2374,-1.2242,-1.2255,-1.2213,-1.218,-1.1969,-1.19,-1.2005,-1.1643,-1.173,-1.1703,-1.1696,-1.1667,-1.1645,-1.1668,-1.207,0,0,0,0,0,-1.3143,-1.2956,-1.2969,-1.2921,-1.2667,-1.2475,-1.2442,-1.2406,-1.2473,-1.2381,-1.2312,-1.2333,-1.195,-1.2042,-1.1993,-1.1878,-1.1491,-1.1474,-1.1459,-1.1392,-1.1362,-1.1337,0,0,0,0,0,0,-1.3124,-1.3066,-1.2973,-1.2841,-1.2783,-1.2481,-1.2586,-1.2571,-1.2482,-1.2489,-1.2346,-1.2328,-1.2291,-1.2064,-1.202,-1.1912,-1.2085,-1.1484,-1.147,-1.1458,-1.1382,-1.1358,-1.1337,0,0,0,0,0,-1.3109,-1.3062,-1.2664,-1.2843,-1.2793,-1.2701,-1.2593,-1.2581,-1.2511,-1.2402,-1.2386,-1.2492,-1.2289,-1.225,-1.2038,-1.1933,-1.2114,-1.2098,-1.1475,-1.1464,-1.1454,-1.137,0,0,0,0,0,0,-1.3097,-1.3048,-1.2653,-1.2636,-1.2911,-1.2717,-1.2686,-1.259,-1.2429,-1.241,-1.2548,-1.2556,-1.2285,-1.2255,-1.2225,-1.1943,-1.2138,-1.2122,-1.2112,-1.1467,-1.1458,-1.1451,0,0,0,0,0,0,-1.3074,-1.3034,-1.2644,-1.2732,-1.2725,-1.2733,-1.2704,-1.2516,-1.2426,-1.2583,-1.2585,-1.2553,-1.2329,-1.2258,-1.2235,-1.1942,-1.2157,-1.2141,-1.2131,-1.2124,-1.146,-1.1453,0,0,0,0,0,0,-1.3056,-1.3023,-1.2736,-1.2731,-1.2725,-1.2536,-1.2565,-1.2305,-1.2506,-1.259,-1.2522,-1.253,-1.2331,-1.2307,-1.2242,-1.1958,-1.1946,-1.2156,-1.2146,-1.2138,-1.2133,0,0,0,0,0,0,0,-1.3042,-1.3278,-1.2752,-1.273,-1.2725,-1.2483,-1.2479,-1.2474,-1.2507,-1.2514,-1.2521,-1.2527,-1.2246,-1.2229,-1.2212,-1.1971,0,0,-1.2158,-1.215,0,0,0,0,0,0,0,0,-1.3291,-1.3281,-1.2751,-1.2748,-1.2745,-1.2483,-1.2479,-1.2475,-1.2508,-1.2514,-1.2519,-1.2524,-1.2241,-1.2228,-1.2214,0,0,0,0,0,0,0,0,0,0,0,0,0,0,0,-1.2751,-1.2748,0,-1.2482,-1.2479,-1.2476,-1.2509,-1.2514,-1.2518,-1.2522,-1.2237,-1.2226,-1.2215,0,0,0,0,0,0,0,0,0,0,0,0,0,0,0,0,0,0,0,0,0,0,0,0,0,0,0,0,0,0,0,0,0,0,0,0,0,0,0,0,0,0,0,0,0,0,0,0,0,0,0,0,0,0,0,0,0,0,0,0,0,0,0,0,0,0,0,0,0]}]]]